Location: Oregon Star Party
(44.2935°N, 120.1332°W)
Time: 22:31:32
(UTC-07:00)

Amateur Radio Satellites - All Passes

Search period start: 25 March 2017 22:01
Search period end: 26 March 2017 22:01
Location: Oregon Star Party, 44.2935°N, 120.1332°W

Satellite Date Start Highest point End Downlink Frequencies (MHz)
Time Altitude Azimuth
AO-85 25 Mar 22:02:11 22:06:34 73° 305° (NW) 22:10:42 145.980
ISS 25 Mar 22:15:20 22:18:36 82° 329° (NNW) 22:21:54 437.550
Tancredo 1 25 Mar 22:19:14 22:22:23 68° 332° (NNW) 22:25:33 437.200
FO-29 25 Mar 22:22:19 22:26:08 17° 87° (E) 22:29:42 435.910
PRISM 25 Mar 22:24:57 22:29:00 47° 100° (E) 22:33:01 437.425
DELFI C3 25 Mar 22:44:34 22:47:42 23° 266° (W) 22:50:51 145.870
TIGRISAT 25 Mar 22:48:40 22:52:53 41° 98° (E) 22:56:58 435.000
UNISAT 6 25 Mar 22:58:29 23:02:53 57° 100° (E) 23:07:08 437.425
LO-87 25 Mar 22:58:34 23:02:06 61° 75° (ENE) 23:05:41 145.935 - 145.965
VELOX 1 25 Mar 23:06:07 23:08:35 15° 61° (ENE) 23:11:03 145.980
SO-50 25 Mar 23:10:17 23:14:21 32° 45° (NE) 23:18:22 436.795
BEESAT 3 25 Mar 23:14:42 23:18:36 70° 122° (ESE) 23:22:35 437.485
ESTCUBE 1 25 Mar 23:24:22 23:28:47 65° 74° (ENE) 23:33:14 437.505/2401.250
BEESAT 2 25 Mar 23:28:49 23:32:30 39° 118° (ESE) 23:36:15 435.950
RS-15 25 Mar 23:34:56 23:46:17 48° 251° (WSW) 23:57:12 29.354- 29.394
NANOSAT C BR1 25 Mar 23:36:40 23:37:23 10° 88° (E) 23:38:08 145.865
EO-79 25 Mar 23:39:40 23:41:35 13° 90° (E) 23:43:29 145.935-145.965
AIST 2D 25 Mar 23:41:09 23:43:49 20° 94° (E) 23:46:28 435.315
AO-85 25 Mar 23:45:48 23:47:39 13° 325° (NW) 23:49:27 145.980
ISS 25 Mar 23:52:37 23:55:26 25° 349° (NNW) 23:58:15 437.550
SPROUT 25 Mar 23:54:19 23:58:15 36° 70° (ENE) 00:02:13 437.525
Tancredo 1 25 Mar 23:56:17 23:58:56 23° 351° (N) 00:01:35 437.200
50 SAT 25 Mar 23:59:18 00:02:10 25° 69° (ENE) 00:05:04 437.505
PRISM 26 Mar 00:01:13 00:03:55 17° 297° (WNW) 00:06:37 437.425
FO-29 26 Mar 00:05:52 00:12:01 69° 288° (WNW) 00:17:28 435.910
POLYITAN 1 26 Mar 00:06:17 00:09:47 25° 95° (E) 00:13:16 437.675
QB50P2 26 Mar 00:10:42 00:14:27 30° 96° (E) 00:18:09 145.880/145.840
DX 1 26 Mar 00:20:03 00:23:58 34° 68° (ENE) 00:27:56 434.975-435.025
DUCHIFAT 1 26 Mar 00:23:58 00:27:46 31° 97° (E) 00:31:31 145.980
TIGRISAT 26 Mar 00:25:59 00:29:17 21° 296° (WNW) 00:32:32 435.000
UNISAT 6 26 Mar 00:36:25 00:39:07 16° 298° (WNW) 00:41:46 437.425
VELOX 1 26 Mar 00:40:09 00:44:31 64° 258° (WSW) 00:48:56 145.980
BUGSAT 1 26 Mar 00:43:42 00:46:34 18° 92° (E) 00:49:25 437.445
SO-50 26 Mar 00:50:43 00:54:49 35° 243° (WSW) 00:58:53 436.795
BEESAT 3 26 Mar 00:54:04 00:56:39 17° 322° (NW) 00:59:17 437.485
UKube-1 26 Mar 01:01:10 01:05:26 66° 73° (ENE) 01:09:43 .
ESTCUBE 1 26 Mar 01:03:56 01:06:02 13° 270° (W) 01:08:10 437.505/2401.250
BEESAT 2 26 Mar 01:07:05 01:10:23 24° 316° (NW) 01:13:45 435.950
NANOSAT C BR1 26 Mar 01:09:23 01:13:37 73° 286° (WNW) 01:17:48 145.865
EO-79 26 Mar 01:13:33 01:17:45 61° 287° (WNW) 01:21:54 145.935-145.965
AIST 2D 26 Mar 01:14:08 01:17:01 25° 291° (WNW) 01:19:55 435.315
Oscar 19 26 Mar 01:22:58 01:26:16 17° 91° (E) 01:29:33 437.125/150
ISS 26 Mar 01:29:51 01:32:37 24° 9° (N) 01:35:23 437.550
SPROUT 26 Mar 01:30:54 01:34:16 22° 267° (W) 01:37:38 437.525
50 SAT 26 Mar 01:32:37 01:35:12 20° 266° (W) 01:37:48 437.505
Tancredo 1 26 Mar 01:33:05 01:35:46 24° 11° (N) 01:38:28 437.200
Gurwin Techsat 1B 26 Mar 01:33:06 01:34:59 12° 87° (E) 01:36:52 435.225
POLYITAN 1 26 Mar 01:41:51 01:45:35 31° 292° (WNW) 01:49:18 437.675
QB50P2 26 Mar 01:46:36 01:50:08 26° 293° (WNW) 01:53:39 145.880/145.840
O/OREOS (USA 219) 26 Mar 01:52:35 01:55:41 17° 51° (NE) 01:58:45 437.305
FO-29 26 Mar 01:53:29 01:55:46 12° 310° (NW) 01:57:58 435.910
DX 1 26 Mar 01:56:42 02:00:13 24° 265° (W) 02:03:45 434.975-435.025
DUCHIFAT 1 26 Mar 01:59:53 02:03:18 24° 294° (WNW) 02:06:41 145.980
BUGSAT 1 26 Mar 02:18:10 02:22:08 41° 289° (WNW) 02:26:02 437.445
BEESAT 26 Mar 02:27:26 02:31:56 43° 69° (ENE) 02:36:27 436.000
UKube-1 26 Mar 02:40:09 02:41:54 12° 270° (W) 02:43:39 .
ITUPSAT 1 26 Mar 02:43:00 02:47:42 59° 72° (ENE) 02:52:26 437.325
MOZHAYETS 4 26 Mar 02:50:26 02:54:23 29° 67° (ENE) 02:58:20
AO-7 26 Mar 02:58:36 03:02:54 15° 87° (E) 03:07:11 .
Oscar 19 26 Mar 03:00:55 03:06:02 65° 288° (WNW) 03:11:09 437.125/150
ISS 26 Mar 03:06:13 03:09:31 66° 29° (NNE) 03:12:48 437.550
ITAMSAT 1 26 Mar 03:08:47 03:11:47 15° 90° (E) 03:14:47 435.822/435.867
Tancredo 1 26 Mar 03:09:04 03:12:16 77° 30° (NNE) 03:15:29 437.200
Gurwin Techsat 1B 26 Mar 03:10:18 03:15:40 89° 106° (ESE) 03:21:00 435.225
O/OREOS (USA 219) 26 Mar 03:30:58 03:35:32 64° 250° (WSW) 03:40:05 437.305
CUBESAT XI-V 26 Mar 03:42:03 03:45:07 18° 63° (ENE) 03:48:11 437.345
BEESAT 26 Mar 04:06:09 04:09:52 22° 266° (W) 04:13:37 436.000
KKS-1 26 Mar 04:12:05 04:16:20 45° 70° (ENE) 04:20:38 437.445
ITUPSAT 1 26 Mar 04:22:56 04:25:55 16° 269° (W) 04:28:55 437.325
MOZHAYETS 4 26 Mar 04:27:24 04:31:28 31° 264° (W) 04:35:33
ISS 26 Mar 04:43:20 04:45:42 18° 225° (SW) 04:48:03 437.550
Tancredo 1 26 Mar 04:46:08 04:48:02 15° 227° (SW) 04:49:56 437.200
ITAMSAT 1 26 Mar 04:46:35 04:51:47 71° 287° (WNW) 04:56:56 435.822/435.867
AO-7 26 Mar 04:48:42 04:57:02 75° 106° (ESE) 05:05:19 .
STARS 26 Mar 04:49:42 04:53:59 50° 71° (ENE) 04:58:18 437.465
Gurwin Techsat 1B 26 Mar 04:52:04 04:54:51 14° 303° (WNW) 04:57:37 435.225
AO-85 26 Mar 04:52:14 04:55:06 19° 41° (NE) 04:57:59 145.980
CUBESAT XI-V 26 Mar 05:17:36 05:22:05 54° 261° (W) 05:26:36 437.345
M-CUBED/EXP-1 PRIME 26 Mar 05:21:49 05:24:52 24° 60° (ENE) 05:28:08 437.505
KKS-1 26 Mar 05:49:58 05:53:07 19° 268° (W) 05:56:18 437.445
BEESAT 3 26 Mar 05:54:08 05:55:42 12° 34° (NNE) 05:57:15 437.485
STRAND 1 26 Mar 05:59:57 06:02:44 15° 58° (ENE) 06:05:32 437.568
DOVE 4 26 Mar 06:06:01 06:10:14 24° 92° (E) 06:14:24 437.250
YUBILEINY 26 Mar 06:16:02 06:19:48 14° 72° (ENE) 06:23:33 435.215
STARS 26 Mar 06:27:46 06:30:37 17° 268° (W) 06:33:29 437.465
ITAMSAT 1 26 Mar 06:28:59 06:30:18 11° 306° (NW) 06:31:37 435.822/435.867
NO-84 26 Mar 06:31:15 06:31:58 11° 127° (SE) 06:32:42 435.350 FM
AO-85 26 Mar 06:31:56 06:35:46 52° 239° (WSW) 06:39:41 145.980
CUTE-I 26 Mar 06:33:14 06:37:40 26° 94° (E) 06:42:04 437.470
AO-7 26 Mar 06:42:20 06:49:06 29° 307° (NW) 06:55:50 .
XW-2F 26 Mar 06:51:13 06:54:43 37° 98° (E) 06:58:11 145.980 - 146.000
LilacSat-2 26 Mar 06:51:46 06:55:22 41° 98° (E) 06:58:55 437.200
M-CUBED/EXP-1 PRIME 26 Mar 06:55:58 06:59:13 29° 260° (W) 07:02:42 437.505
XW-2D 26 Mar 07:16:44 07:20:30 84° 103° (ESE) 07:24:15 145.860 - 145.880
NUDT-PHONESAT 26 Mar 07:17:47 07:21:28 67° 101° (E) 07:25:06 437.300
HO-68 26 Mar 07:18:13 07:23:04 19° 89° (E) 07:27:54 435.675
XW-2B 26 Mar 07:22:40 07:26:26 85° 283° (WNW) 07:30:11 145.730 - 145.750
KAITUO 1B 26 Mar 07:24:31 07:28:14 82° 102° (ESE) 07:31:55 145.475/437.950
BEESAT 3 26 Mar 07:30:02 07:34:04 67° 54° (NE) 07:38:03 437.485
XW-2C 26 Mar 07:32:53 07:36:36 62° 285° (WNW) 07:40:18 145.795 - 145.815
STRAND 1 26 Mar 07:36:03 07:41:14 83° 257° (WSW) 07:46:25 437.568
XW-2A 26 Mar 07:36:49 07:39:08 17° 93° (E) 07:41:25 145.665 - 145.685
SEEDS 26 Mar 07:38:21 07:39:38 11° 89° (E) 07:40:55 437.485
CUTE 1.7 + AOD 2 26 Mar 07:42:56 07:46:02 20° 93° (E) 07:49:08 437.475
DOVE 4 26 Mar 07:43:01 07:48:08 49° 289° (WNW) 07:53:10 437.250
BEESAT 2 26 Mar 07:44:49 07:48:41 41° 49° (NE) 07:52:31 435.950
YUBILEINY 26 Mar 08:06:13 08:14:52 70° 93° (E) 08:23:31 435.215
NO-84 26 Mar 08:06:16 08:09:06 64° 324° (NW) 08:11:57 435.350 FM
CUTE-I 26 Mar 08:12:49 08:17:53 44° 292° (WNW) 08:22:55 437.470
UWE-3 26 Mar 08:25:10 08:27:50 16° 90° (E) 08:30:27 435.000/436.395/437.385
XW-2F 26 Mar 08:26:10 08:28:35 17° 295° (WNW) 08:31:00 145.980 - 146.000
LilacSat-2 26 Mar 08:27:02 08:29:19 16° 295° (WNW) 08:31:36 437.200
FO-29 26 Mar 08:36:39 08:40:40 15° 53° (NE) 08:44:34 435.910
NUDT-PHONESAT 26 Mar 08:54:39 08:54:50 10° 298° (WNW) 08:55:01 437.300
CUBEBUG 2 26 Mar 08:56:56 09:01:19 57° 100° (E) 09:05:31 437.445
AAUSAT CUBESAT 2 26 Mar 08:57:06 09:01:01 40° 98° (E) 09:04:56 437.432
Oscar 11 26 Mar 08:59:38 09:02:32 17° 92° (E) 09:05:23 .
HO-68 26 Mar 09:04:25 09:11:37 84° 286° (WNW) 09:18:47 435.675
ZACube-1 26 Mar 09:06:01 09:09:33 25° 94° (E) 09:13:00 437.345
XW-2A 26 Mar 09:09:00 09:11:56 27° 290° (WNW) 09:14:50 145.665 - 145.685
BEESAT 3 26 Mar 09:09:24 09:11:08 12° 251° (WSW) 09:12:50 437.485
SEEDS 26 Mar 09:11:36 09:15:46 67° 285° (WNW) 09:19:55 437.485
PRISM 26 Mar 09:15:34 09:19:22 41° 71° (ENE) 09:23:15 437.425
CUTE 1.7 + AOD 2 26 Mar 09:18:06 09:22:01 38° 289° (WNW) 09:25:55 437.475
PCSat 26 Mar 09:18:15 09:22:28 24° 107° (ESE) 09:26:42 145.827
STRAND 1 26 Mar 09:20:24 09:21:10 10° 273° (W) 09:21:55 437.568
BEESAT 2 26 Mar 09:23:06 09:26:13 21° 247° (WSW) 09:29:18 435.950
AO-73 26 Mar 09:34:14 09:38:19 46° 99° (E) 09:42:18 145.935
NO-84 26 Mar 09:45:26 09:47:07 14° 344° (NNW) 09:48:51 435.350 FM
TIGRISAT 26 Mar 09:48:12 09:52:39 45° 71° (ENE) 09:57:06 435.000
UNISAT 6 26 Mar 09:58:06 10:02:43 61° 73° (ENE) 10:07:20 437.425
UWE-3 26 Mar 10:00:25 10:04:36 48° 288° (WNW) 10:08:40 435.000/436.395/437.385
YUBILEINY 26 Mar 10:05:12 10:12:27 28° 295° (WNW) 10:19:43 435.215
FO-29 26 Mar 10:16:48 10:24:31 66° 71° (ENE) 10:31:44 435.910
AIST 2D 26 Mar 10:18:54 10:19:53 11° 63° (ENE) 10:20:53 435.315
DELFI C3 26 Mar 10:19:05 10:22:49 37° 98° (E) 10:26:31 145.870
NANOSAT C BR1 26 Mar 10:30:24 10:31:36 11° 59° (ENE) 10:32:48 145.865
AAUSAT CUBESAT 2 26 Mar 10:33:16 10:36:13 19° 295° (WNW) 10:39:09 437.432
EO-79 26 Mar 10:33:54 10:35:56 13° 61° (ENE) 10:37:58 145.935-145.965
Oscar 11 26 Mar 10:34:46 10:38:53 45° 288° (WNW) 10:42:59 .
CUBEBUG 2 26 Mar 10:34:47 10:37:26 16° 298° (WNW) 10:40:02 437.445
ZACube-1 26 Mar 10:42:08 10:45:50 30° 292° (WNW) 10:49:28 437.345
PRISM 26 Mar 10:52:08 10:54:52 17° 267° (W) 10:57:37 437.425
HO-68 26 Mar 10:53:39 10:58:20 19° 308° (NW) 11:03:00 435.675
PCSat 26 Mar 11:00:10 11:05:28 55° 306° (NW) 11:10:50 145.827
POLYITAN 1 26 Mar 11:00:18 11:03:45 24° 66° (ENE) 11:07:12 437.675
QB50P2 26 Mar 11:04:39 11:08:19 28° 68° (ENE) 11:11:59 145.880/145.840
AO-73 26 Mar 11:11:24 11:14:12 17° 296° (WNW) 11:16:57 145.935
DUCHIFAT 1 26 Mar 11:17:06 11:20:48 29° 68° (ENE) 11:24:29 145.980
ESTCUBE 1 26 Mar 11:17:07 11:18:55 12° 89° (E) 11:20:43 437.505/2401.250
NO-84 26 Mar 11:24:36 11:25:43 12° 7° (N) 11:26:51 435.350 FM
TIGRISAT 26 Mar 11:26:01 11:29:31 21° 267° (W) 11:33:02 435.000
BUGSAT 1 26 Mar 11:35:04 11:37:49 17° 63° (ENE) 11:40:34 437.445
UNISAT 6 26 Mar 11:37:02 11:39:48 15° 270° (W) 11:42:33 437.425
RS-15 26 Mar 11:48:47 11:58:23 30° 102° (ESE) 12:08:12 29.354- 29.394
AIST 2D 26 Mar 11:49:10 11:52:39 55° 260° (W) 11:56:09 435.315
DELFI C3 26 Mar 11:54:30 11:57:21 19° 294° (WNW) 12:00:11 145.870
LO-87 26 Mar 11:57:18 12:00:56 62° 101° (E) 12:04:33 145.935 - 145.965
NANOSAT C BR1 26 Mar 12:02:23 12:06:39 83° 257° (WSW) 12:10:57 145.865
FO-29 26 Mar 12:03:20 12:09:51 29° 268° (W) 12:16:07 435.910
EO-79 26 Mar 12:06:53 12:11:08 68° 257° (WSW) 12:15:26 145.935-145.965
VELOX 1 26 Mar 12:29:05 12:32:31 21° 93° (E) 12:35:56 145.980
POLYITAN 1 26 Mar 12:35:28 12:39:22 33° 263° (W) 12:43:17 437.675
QB50P2 26 Mar 12:40:21 12:44:02 28° 264° (W) 12:47:45 145.880/145.840
Oscar 19 26 Mar 12:41:00 12:45:22 29° 65° (ENE) 12:49:45 437.125/150
PCSat 26 Mar 12:47:30 12:50:07 13° 328° (NNW) 12:52:46 145.827
ESTCUBE 1 26 Mar 12:51:42 12:56:13 71° 285° (WNW) 13:00:42 437.505/2401.250
DUCHIFAT 1 26 Mar 12:52:49 12:56:26 26° 265° (W) 13:00:03 145.980
Gurwin Techsat 1B 26 Mar 12:54:36 12:58:47 24° 63° (ENE) 13:03:00 435.225
50 SAT 26 Mar 12:54:42 12:57:29 22° 95° (E) 13:00:15 437.505
NO-84 26 Mar 13:01:22 13:04:04 27° 28° (NNE) 13:06:56 435.350 FM
BUGSAT 1 26 Mar 13:08:40 13:12:46 50° 260° (W) 13:16:57 437.445
SPROUT 26 Mar 13:13:46 13:18:00 55° 100° (E) 13:22:12 437.525
LO-87 26 Mar 13:33:03 13:33:53 11° 298° (WNW) 13:34:42 145.935 - 145.965
DX 1 26 Mar 13:42:06 13:46:23 50° 100° (E) 13:50:39 434.975-435.025
RS-15 26 Mar 13:57:22 14:09:28 85° 305° (NW) 14:21:57 29.354- 29.394
AO-7 26 Mar 13:58:41 14:05:28 29° 53° (NE) 14:12:14 .
VELOX 1 26 Mar 14:04:56 14:09:07 40° 290° (WNW) 14:13:16 145.980
Oscar 19 26 Mar 14:19:50 14:24:34 37° 263° (W) 14:29:19 437.125/150
UKube-1 26 Mar 14:22:19 14:26:41 84° 285° (WNW) 14:31:01 .
50 SAT 26 Mar 14:27:37 14:30:29 24° 291° (WNW) 14:33:20 437.505
ITAMSAT 1 26 Mar 14:27:39 14:32:06 29° 65° (ENE) 14:36:34 435.822/435.867
Gurwin Techsat 1B 26 Mar 14:33:15 14:38:24 50° 260° (W) 14:43:36 435.225
NO-84 26 Mar 14:38:39 14:41:42 41° 224° (SW) 14:44:59 435.350 FM
ITUPSAT 1 26 Mar 14:43:37 14:45:50 13° 89° (E) 14:48:03 437.325
SPROUT 26 Mar 14:50:54 14:53:29 16° 298° (WNW) 14:56:03 437.525
SO-50 26 Mar 15:05:39 15:10:08 49° 119° (ESE) 15:14:35 436.795
DX 1 26 Mar 15:19:15 15:22:11 18° 297° (WNW) 15:25:07 434.975-435.025
AO-7 26 Mar 15:49:12 15:57:31 75° 253° (WSW) 16:05:53 .
BEESAT 26 Mar 16:03:08 16:07:55 82° 101° (ESE) 16:12:40 436.000
ITAMSAT 1 26 Mar 16:06:32 16:11:25 39° 262° (W) 16:16:19 435.822/435.867
O/OREOS (USA 219) 26 Mar 16:08:36 16:10:17 12° 97° (E) 16:11:59 437.305
RS-15 26 Mar 16:12:58 16:24:01 37° 333° (NNW) 16:35:13 29.354- 29.394
ITUPSAT 1 26 Mar 16:19:25 16:24:11 72° 286° (WNW) 16:28:55 437.325
MOZHAYETS 4 26 Mar 16:20:00 16:24:29 53° 100° (E) 16:28:55
SO-50 26 Mar 16:46:56 16:50:50 26° 318° (NW) 16:54:41 436.795
CUBESAT XI-V 26 Mar 17:12:26 17:16:37 32° 96° (E) 17:20:49 437.345
DOVE 4 26 Mar 17:12:56 17:16:48 26° 65° (ENE) 17:20:53 437.250
XW-2F 26 Mar 17:33:54 17:36:57 23° 68° (ENE) 17:39:59 145.980 - 146.000
LilacSat-2 26 Mar 17:35:15 17:38:29 26° 69° (ENE) 17:41:42 437.200
KKS-1 26 Mar 17:37:29 17:42:00 74° 103° (ESE) 17:46:28 437.445
BEESAT 26 Mar 17:42:46 17:45:02 13° 302° (WNW) 17:47:19 436.000
O/OREOS (USA 219) 26 Mar 17:44:30 17:49:02 73° 296° (WNW) 17:53:37 437.305
AO-7 26 Mar 17:47:16 17:51:38 15° 273° (W) 17:56:01 .
HO-68 26 Mar 17:49:44 17:54:28 19° 52° (NE) 17:59:11 435.675
CUTE-I 26 Mar 17:56:17 18:01:26 50° 70° (ENE) 18:06:38 437.470
MOZHAYETS 4 26 Mar 17:58:11 18:01:14 18° 297° (WNW) 18:04:16
NUDT-PHONESAT 26 Mar 17:58:32 18:01:59 36° 71° (ENE) 18:05:27 437.300
XW-2D 26 Mar 17:59:10 18:02:51 48° 73° (ENE) 18:06:32 145.860 - 145.880
PCSat 26 Mar 18:03:20 18:08:08 30° 46° (NE) 18:12:54 145.827
XW-2B 26 Mar 18:05:03 18:08:47 55° 74° (ENE) 18:12:31 145.730 - 145.750
KAITUO 1B 26 Mar 18:05:49 18:09:24 45° 73° (ENE) 18:13:00 145.475/437.950
STARS 26 Mar 18:13:24 18:17:51 79° 103° (ESE) 18:22:15 437.465
YUBILEINY 26 Mar 18:14:35 18:22:32 37° 69° (ENE) 18:30:26 435.215
XW-2C 26 Mar 18:15:10 18:18:58 75° 75° (ENE) 18:22:47 145.795 - 145.815
RS-15 26 Mar 18:30:59 18:41:19 29° 8° (N) 18:51:30 29.354- 29.394
SEEDS 26 Mar 18:32:37 18:33:25 10° 60° (ENE) 18:34:13 437.485
M-CUBED/EXP-1 PRIME 26 Mar 18:32:50 18:35:53 17° 96° (E) 18:38:56 437.505
CUTE 1.7 + AOD 2 26 Mar 18:37:27 18:40:19 18° 65° (ENE) 18:43:11 437.475
DOVE 4 26 Mar 18:49:51 18:54:15 40° 264° (W) 18:58:56 437.250
CUBESAT XI-V 26 Mar 18:49:56 18:53:54 28° 293° (WNW) 18:57:52 437.345
XW-2F 26 Mar 19:07:47 19:10:59 26° 264° (W) 19:14:13 145.980 - 146.000
LilacSat-2 26 Mar 19:09:36 19:12:44 23° 265° (W) 19:15:51 437.200
KKS-1 26 Mar 19:15:47 19:17:57 13° 300° (WNW) 19:20:07 437.445
UWE-3 26 Mar 19:23:19 19:26:30 19° 64° (ENE) 19:29:41 435.000/436.395/437.385
O/OREOS (USA 219) 26 Mar 19:28:04 19:29:18 11° 315° (NW) 19:30:32 437.305
NUDT-PHONESAT 26 Mar 19:33:40 19:36:03 16° 268° (W) 19:38:27 437.300
HO-68 26 Mar 19:34:02 19:41:11 85° 74° (ENE) 19:48:24 435.675
XW-2D 26 Mar 19:35:34 19:37:20 13° 270° (W) 19:39:05 145.860 - 145.880
CUTE-I 26 Mar 19:37:30 19:41:44 23° 267° (W) 19:46:00 437.470
XW-2A 26 Mar 19:41:02 19:44:27 68° 257° (WSW) 19:47:55 145.665 - 145.685
KAITUO 1B 26 Mar 19:41:49 19:43:40 13° 269° (W) 19:45:32 145.475/437.950
XW-2B 26 Mar 19:42:05 19:43:19 11° 270° (W) 19:44:33 145.730 - 145.750
STRAND 1 26 Mar 19:45:21 19:49:48 29° 95° (E) 19:54:13 437.568
PCSat 26 Mar 19:46:31 19:51:44 48° 246° (WSW) 19:56:55 145.827
AAUSAT CUBESAT 2 26 Mar 19:48:39 19:52:19 32° 69° (ENE) 19:55:59 437.432
STARS 26 Mar 19:51:45 19:53:34 12° 301° (WNW) 19:55:22 437.465
CUBEBUG 2 26 Mar 19:55:37 20:00:17 58° 73° (ENE) 20:04:55 437.445
Oscar 11 26 Mar 19:56:12 19:59:02 17° 64° (ENE) 20:01:52 .
ZACube-1 26 Mar 20:02:57 20:06:43 26° 67° (ENE) 20:10:28 437.345
SEEDS 26 Mar 20:04:17 20:08:27 82° 259° (WSW) 20:12:38 437.485
M-CUBED/EXP-1 PRIME 26 Mar 20:06:02 20:10:36 59° 292° (WNW) 20:15:11 437.505
YUBILEINY 26 Mar 20:11:16 20:19:36 52° 271° (W) 20:27:55 435.215
CUTE 1.7 + AOD 2 26 Mar 20:11:48 20:15:49 44° 261° (W) 20:19:52 437.475
AO-73 26 Mar 20:30:35 20:34:53 45° 72° (ENE) 20:39:09 145.935
RS-15 26 Mar 20:45:38 20:57:40 52° 40° (NE) 21:09:12 29.354- 29.394
AO-85 26 Mar 20:47:44 20:51:37 30° 117° (ESE) 20:55:18 145.980
UWE-3 26 Mar 20:58:01 21:02:33 53° 260° (W) 21:07:06 435.000/436.395/437.385
DELFI C3 26 Mar 21:06:12 21:09:31 26° 68° (ENE) 21:12:49 145.870
Tancredo 1 26 Mar 21:22:00 21:25:07 61° 145° (SE) 21:28:16 437.200
ISS 26 Mar 21:23:04 21:26:17 56° 144° (SE) 21:29:30 437.550
STRAND 1 26 Mar 21:24:21 21:29:01 37° 293° (WNW) 21:33:40 437.568
AAUSAT CUBESAT 2 26 Mar 21:24:37 21:27:50 22° 266° (W) 21:31:04 437.432
HO-68 26 Mar 21:25:00 21:29:45 19° 271° (W) 21:34:31 435.675
Oscar 11 26 Mar 21:30:37 21:34:48 49° 261° (W) 21:39:00 .
CUBEBUG 2 26 Mar 21:34:13 21:37:14 17° 270° (W) 21:40:14 437.445
ZACube-1 26 Mar 21:38:45 21:42:52 33° 264° (W) 21:46:58 437.345
UNISAT 6 26 Mar 21:51:03 21:52:02 11° 87° (E) 21:52:59 437.425
SO-50 26 Mar 21:56:11 21:58:34 14° 32° (NNE) 22:00:56 436.795
